Find Starlink 30769

NORAD ID: 58138 Int'l Des: 2023-162 Owner: SPXS Country: US Constellation: starlink operational
LEOCIRCULAR

Current View

Loading 3D Globe...

About Starlink 30769

Starlink 30769 (NORAD 58138) is a starlink constellation satellite (v2 mini) launched Oct 22, 2023 by SPXS of US. It operates in LEO, CIRCULAR orbit with a mass of 730.00 kg.

Upcoming Passes

Passes for default location (London). Set your location on the main map for personalized predictions.

Altitude History

Loading altitude history...

Two-Line Element Set

1 58138U 23162W 26237.34131157 .00001392 00000-0 60095-4 0 9993
2 58138 43.0023 259.7338 0001406 267.4927 92.5764 15.27573642158104
Epoch: Aug 25, 2026 • Age: 18 hours

Current Status

Altitude 483.2 km
Apogee / Perigee N/A
Velocity 7.63 km/s
Sub-Earth Point 22.66°N, 43.41°E
Launch Date Oct 22, 2023
Age 2.8 years
Type internet

Technical Details

Classification Payload
Mass 730.00 kg
Dry Mass 700.00 kg
Total Mass 730.00 kg
Length 0.30 m
Diameter 4.10 m
Span 29.00 m
Shape Box + pan
Manufacturer SPXS
Bus Type Starlink V2M
Phase Status In Orbit
Owner/State SPXS/US

Most Searched